Satellite: NOAA-17
Catalog number: 27453
Epoch time:      11075.72494363
Element set:    0222
Inclination:      098.3921 deg
RA of node:       119.6331 deg
Eccentricity:    0.0012580
Arg of perigee:   062.8775 deg
Mean anomaly:     297.3692 deg
Mean motion:   14.24247030 rev/day
Decay rate:       2.75e-06 rev/day^2
Epoch rev:           45349
Checksum:              308

Satellite: NOAA-18
Catalog number: 28654
Epoch time:      11075.73350433
Element set:    0704
Inclination:      098.9861 deg
RA of node:       026.7009 deg
Eccentricity:    0.0014579
Arg of perigee:   008.9851 deg
Mean anomaly:     351.1564 deg
Mean motion:   14.11446160 rev/day
Decay rate:       -8.5e-07 rev/day^2
Epoch rev:           29988
Checksum:              323

Satellite: NOAA-19
Catalog number: 33591
Epoch time:      11075.71027057
Element set:    0897
Inclination:      098.8193 deg
RA of node:       017.4551 deg
Eccentricity:    0.0013277
Arg of perigee:   236.5972 deg
Mean anomaly:     123.3927 deg
Mean motion:   14.11139258 rev/day
Decay rate:       -5.2e-07 rev/day^2
Epoch rev:           10834
Checksum:              310

/EX
SB KEPS @ AMSAT  $ORB11076.M
Orbital Elements  11076.MISC

HR AMSAT ORBITAL ELEMENTS FOR MANNED AND MISCELLANEOUS SATELLITES
FROM WA5QGD FORT WORTH,TX March 17, 2011
Send Subscribe/unsubscribe to KEPS at http://www.amsat.org/mailman/listinfo/kep
BID: ORB11076.M
TO ALL RADIO AMATEURS BT

Satellite: HUBBLE
Catalog number: 20580
Epoch time:      11076.11330575
Element set:     727
Inclination:      028.4716 deg
RA of node:       257.8493 deg
Eccentricity:    0.0003299
Arg of perigee:   222.1407 deg
Mean anomaly:     137.8767 deg
Mean motion:   15.01216185 rev/day
Decay rate:      1.442e-05 rev/day^2
Epoch rev:           94580
Checksum:              292

Satellite: ISS
Catalog number: 25544
Epoch time:      11076.98360876
Element set:      21
Inclination:      051.6460 deg
RA of node:       268.7443 deg
Eccentricity:    0.0006148
Arg of perigee:   073.9775 deg
Mean anomaly:     088.8527 deg
Mean motion:   15.73024963 rev/day
Decay rate:     2.9015e-04 rev/day^2
Epoch rev:           70654
Checksum:              322

Satellite: CO-58
Catalog number: 28895
Epoch time:      11076.64574452
Element set:     826
Inclination:      097.9811 deg
RA of node:       316.5062 deg
Eccentricity:    0.0018841
Arg of perigee:   145.3556 deg
Mean anomaly:     214.8877 deg
Mean motion:   14.60030317 rev/day
Decay rate:       2.35e-06 rev/day^2
Epoch rev:           28688
Checksum:              336

Satellite: FALCON
Catalog number: 30776
Epoch time:      11075.73354645
Element set:      43
Inclination:      035.4327 deg
RA of node:       188.9868 deg
Eccentricity:    0.0001274
Arg of perigee:   337.6454 deg
Mean anomaly:     022.4208 deg
Mean motion:   15.04235127 rev/day
Decay rate:      2.137e-05 rev/day^2
Epoch rev:           22111
Checksum:              275

Satellite: MAST
Catalog number: 31126
Epoch time:      11076.83669542
Element set:     109
Inclination:      097.9056 deg
RA of node:       109.1892 deg
Eccentricity:    0.0095702
Arg of perigee:   095.1901 deg
Mean anomaly:     266.0235 deg
Mean motion:   14.53690329 rev/day
Decay rate:       2.06e-06 rev/day^2
Epoch rev:           20781
Checksum:              296

Satellite: CAPE1
Catalog number: 31130
Epoch time:      11076.59943428
Element set:     129
Inclination:      097.9109 deg
RA of node:       105.8734 deg
Eccentricity:    0.0103798
Arg of perigee:   105.2990 deg
Mean anomaly:     255.9708 deg
Mean motion:   14.52312354 rev/day
Decay rate:       2.49e-06 rev/day^2
Epoch rev:           20734
Checksum:              303

Satellite: COMPASS
Catalog number: 32787
Epoch time:      11075.66517399
Element set:    0935
Inclination:      097.8568 deg
RA of node:       141.1766 deg
Eccentricity:    0.0016631
Arg of perigee:   116.0311 deg
Mean anomaly:     244.2614 deg
Mean motion:   14.82203261 rev/day
Decay rate:       8.69e-06 rev/day^2
Epoch rev:           15585
Checksum:              311

Satellite: AAUSAT2
Catalog number: 32788
Epoch time:      11076.65254524
Element set:     925
Inclination:      097.8579 deg
RA of node:       142.3426 deg
Eccentricity:    0.0016497
Arg of perigee:   113.9757 deg
Mean anomaly:     246.2993 deg
Mean motion:   14.82372843 rev/day
Decay rate:       5.90e-06 rev/day^2
Epoch rev:           15601
Checksum:              334

Satellite: DO-64
Catalog number: 32789
Epoch time:      11076.82242580
Element set:     942
Inclination:      097.8662 deg
RA of node:       143.3509 deg
Eccentricity:    0.0016722
Arg of perigee:   112.8892 deg
Mean anomaly:     247.4070 deg
Mean motion:   14.82707076 rev/day
Decay rate:      1.928e-05 rev/day^2
Epoch rev:           15604
Checksum:              323

Satellite: CO-66
Catalog number: 32791
Epoch time:      11075.59605798
Element set:    0928
Inclination:      097.8577 deg
RA of node:       141.0765 deg
Eccentricity:    0.0016909
Arg of perigee:   115.1586 deg
Mean anomaly:     245.1390 deg
Mean motion:   14.81933122 rev/day
Decay rate:       6.41e-06 rev/day^2
Epoch rev:           15579
Checksum:              341

